DN9EM-1 Weather Reports


time (UTC)temp
F
wind
direction
speed
knots
gust
knots
rain 1hr
in
rain 24hr
in
rain mn
in
humidity
%
barometer
mb
20260506134516 57 29 0.9 3.5 0.00 0.00 0.00 49 1010.9
20260506133614 57 37 0.9 5.2 0.00 0.00 0.00 48 1010.8
20260506132611 57 18 0.9 3.5 0.00 0.00 0.00 48 1010.9
20260506131603 57 358 0.9 3.5 0.00 0.00 0.00 47 1010.7
20260506130601 57 134 0.9 3.5 0.00 0.00 0.00 46 1010.7
20260506125552 57 340 0.9 5.2 0.00 0.00 0.00 45 1010.7
20260506124550 58 114 1.7 5.2 0.00 0.00 0.00 45 1010.6
20260506123547 58 10 0.9 3.5 0.00 0.00 0.00 44 1010.6
20260506122539 58 10 1.7 6.1 0.00 0.00 0.00 44 1010.5
20260506121537 59 11 0.9 3.5 0.00 0.00 0.00 43 1010.4
20260506120528 58 23 1.7 3.5 0.00 0.00 0.00 43 1010.4
20260506115526 58 49 0.9 3.5 0.00 0.00 0.00 43 1010.3
20260506114523 58 94 1.7 6.1 0.00 0.00 0.00 42 1010.3
20260506113515 58 40 1.7 6.1 0.00 0.00 0.00 41 1010.2
20260506112613 58 16 0.9 3.5 0.00 0.00 0.00 41 1010.3
20260506111604 57 37 0.9 3.5 0.00 0.00 0.00 43 1010.4
20260506110602 57 12 1.7 5.2 0.00 0.00 0.00 43 1010.3
20260506105559 57 354 1.7 5.2 0.00 0.00 0.00 44 1010.4
20260506104551 57 95 0.9 3.5 0.00 0.00 0.00 44 1010.4
20260506103549 56 18 1.7 6.1 0.00 0.00 0.00 44 1010.4
20260506102540 57 73 0.9 3.5 0.00 0.00 0.00 45 1010.4
20260506101538 56 2 0.9 3.5 0.00 0.00 0.00 46 1010.4
20260506100535 56 122 0.9 3.5 0.00 0.00 0.00 46 1010.4
20260506095527 55 27 0.9 3.5 0.00 0.00 0.00 46 1010.6
20260506094525 55 18 1.7 7.8 0.00 0.00 0.00 46 1010.5
20260506093516 55 62 0.9 3.5 0.00 0.00 0.00 48 1010.6
20260506092614 55 58 1.7 3.5 0.00 0.00 0.00 48 1010.6
20260506091612 55 281 0.9 3.5 0.00 0.00 0.00 49 1010.6
20260506090603 54 354 0.9 3.5 0.00 0.00 0.00 51 1010.7
20260506085600 54 348 0.9 5.2 0.00 0.00 0.00 51 1010.7
20260506084553 53 54 0.9 3.5 0.00 0.00 0.00 52 1010.7
20260506083550 53 11 0.0 1.7 0.00 0.00 0.00 53 1010.6
20260506082547 53 2 0.9 1.7 0.00 0.00 0.00 53 1010.6
20260506081539 53 108 0.9 3.5 0.00 0.00 0.00 53 1010.6
20260506080536 52 27 0.9 3.5 0.00 0.00 0.00 55 1010.6
20260506073523 51 0 0.9 3.5 0.00 0.00 0.00 52 1010.5
20260506072515 51 0 0.9 3.5 0.00 0.00 0.00 52 1010.6
20260506071613 51 117 0.9 6.1 0.00 0.00 0.00 53 1010.5
20260506070605 50 14 0.9 3.5 0.00 0.00 0.00 54 1010.5
20260506061541 49 17 0.9 3.5 0.00 0.00 0.00 58 1010.4
20260506060538 49 0.0 1.7 0.00 0.00 0.00 59 1010.4
20260506050611 48 0 0.9 5.2 0.00 0.00 0.00 61 1010.4
20260506044601 48 45 0.0 1.7 0.00 0.00 0.00 63 1010.4
20260506043552 48 23 0.9 3.5 0.00 0.00 0.00 65 1010.6
20260506042550 48 23 0.0 1.7 0.00 0.00 0.00 67 1010.6
20260506041547 47 0.0 1.7 0.00 0.00 0.00 68 1010.5
20260506040539 47 0.0 1.7 0.00 0.00 0.00 71 1010.4
20260506035537 45 0.0 0.0 0.00 0.00 0.00 79 1010.4
20260506034528 46 0.0 1.7 0.00 0.00 0.00 79 1010.5
20260506033526 46 0.0 1.7 0.00 0.00 0.00 79 1010.4
20260506032523 46 0.0 1.7 0.00 0.00 0.00 80 1010.5
20260506031515 45 0.0 0.0 0.00 0.00 0.00 82 1010.6
20260506030613 45 0.0 0.0 0.00 0.00 0.00 83 1010.6
20260506025604 45 0.0 0.0 0.00 0.00 0.00 82 1010.6
20260506024602 45 0.0 0.0 0.00 0.00 0.00 84 1010.6
20260506023559 45 0.0 1.7 0.00 0.00 0.00 84 1010.8
20260506022552 45 0.0 0.0 0.00 0.00 0.00 83 1010.8
20260506021549 45 0.0 1.7 0.00 0.00 0.00 83 1011.1
20260506020540 44 0.0 0.0 0.00 0.00 0.00 83 1011.3
20260506015538 45 0.0 0.0 0.00 0.00 0.00 82 1011.2
20260506014535 46 0.0 1.7 0.00 0.00 0.00 80 1011.3
20260506013528 46 0.0 0.0 0.00 0.00 0.00 79 1011.2
20260506012525 46 0.0 0.0 0.00 0.00 0.00 80 1011.2
20260506011516 46 0.0 0.0 0.00 0.00 0.00 79 1011.2
20260506010614 47 0.0 0.0 0.00 0.00 0.00 79 1011.3
20260506005611 47 0.0 0.0 0.00 0.00 0.00 79 1011.3
20260506004604 47 0.0 0.0 0.00 0.00 0.00 79 1011.5
20260506003601 47 0.0 1.7 0.00 0.00 0.00 80 1011.6
20260506002553 47 0.0 0.0 0.00 0.00 0.00 80 1011.7
20260506001550 47 0.0 0.0 0.00 0.00 0.00 79 1011.7
20260506000547 47 0.0 0.0 0.00 0.00 0.00 79 1011.6
20260505235539 47 0.0 0.0 0.00 0.00 0.00 79 1011.9
20260505234536 47 0.0 0.0 0.00 0.00 0.00 78 1011.7
20260505233529 47 0.0 0.0 0.00 0.00 0.00 78 1011.8
20260505232526 47 0.0 0.0 0.00 0.00 0.00 78 1011.9
20260505231523 47 0.0 1.7 0.00 0.00 0.00 78 1011.8
20260505230515 47 0.0 0.0 0.00 0.00 0.00 77 1011.8
20260505225613 47 0.0 1.7 0.00 0.00 0.00 77 1011.8
20260505224605 47 0.0 1.7 0.00 0.00 0.00 77 1011.9
20260505223602 48 0.0 0.0 0.00 0.00 0.00 76 1012.0
20260505222600 48 0.0 1.7 0.00 0.00 0.00 76 1012.0
20260505220549 48 0.0 1.7 0.00 0.00 0.00 74 1012.1
20260505215541 48 0.0 1.7 0.00 0.00 0.00 74 1012.3
20260505214538 49 0.0 0.0 0.00 0.00 0.00 73 1012.2
20260505213536 49 0.0 0.0 0.00 0.00 0.00 72 1012.2
20260505212527 49 0.0 1.7 0.00 0.00 0.00 72 1012.3
20260505211525 49 29 0.0 1.7 0.00 0.00 0.00 71 1012.3
20260505210516 50 0 0.0 1.7 0.00 0.00 0.00 70 1012.4
20260505205614 50 0.0 1.7 0.00 0.00 0.00 68 1012.3
20260505204611 50 0.0 1.7 0.00 0.00 0.00 67 1012.3
20260505203603 50 0.0 1.7 0.00 0.00 0.00 65 1012.3
20260505202600 51 0.0 0.0 0.00 0.00 0.00 65 1012.2
20260505201612 51 0.0 0.0 0.00 0.00 0.00 66 1012.2
20260505200610 51 0.0 0.0 0.00 0.00 0.00 64 1012.1
20260505195607 51 0.0 1.7 0.00 0.00 0.00 65 1012.1
20260505194605 52 0.0 0.0 0.00 0.00 0.00 63 1012.1
20260505193602 52 0.0 0.0 0.00 0.00 0.00 62 1012.0
20260505192600 53 0.0 0.0 0.00 0.00 0.00 61 1011.9
20260505191557 53 0.0 0.0 0.00 0.00 0.00 62 1011.7
20260505190555 54 0.0 1.7 0.00 0.00 0.00 62 1011.7
20260505185552 54 0.0 1.7 0.00 0.00 0.00 62 1011.8
20260505184549 54 0.0 0.0 0.00 0.00 0.00 62 1011.8
20260505183547 55 0.0 0.0 0.00 0.00 0.00 62 1011.8
20260505182544 55 0.0 0.0 0.00 0.00 0.00 61 1011.8
20260505181542 55 23 0.0 1.7 0.00 0.00 0.00 60 1011.8
20260505180539 55 90 0.0 3.5 0.00 0.00 0.00 61 1011.9
20260505175536 56 23 0.0 1.7 0.00 0.00 0.00 61 1011.8
20260505174534 56 7 0.0 1.7 0.00 0.00 0.00 62 1011.8
20260505173531 56 354 0.0 3.5 0.00 0.00 0.00 61 1011.9
20260505172529 56 48 0.9 3.5 0.00 0.00 0.00 60 1011.8
20260505171526 57 180 0.0 3.5 0.00 0.00 0.00 61 1011.9
20260505170523 57 8 0.9 1.7 0.00 0.00 0.00 61 1012.0
20260505165521 57 15 0.0 1.7 0.00 0.00 0.00 61 1011.9
20260505164518 57 23 0.0 1.7 0.00 0.00 0.00 61 1012.1
20260505163516 57 0.0 1.7 0.00 0.00 0.00 62 1012.1
20260505162613 56 3 0.9 3.5 0.00 0.00 0.00 61 1012.1
20260505161611 57 13 0.9 3.5 0.00 0.00 0.00 61 1012.1
20260505160608 57 10 0.9 3.5 0.00 0.00 0.00 61 1012.3
20260505152558 57 14 0.9 3.5 0.00 0.00 0.00 61 1012.4
20260505151555 58 130 0.0 3.5 0.00 0.00 0.00 61 1012.4
20260505150553 58 58 0.9 3.5 0.00 0.00 0.00 61 1012.4
20260505140538 58 23 0.0 3.5 0.00 0.00 0.00 61 1012.5